| time (UTC) | temp F | wind direction | speed MPH | gust MPH | rain 1hr in | rain 24hr in | rain mn in | humidity % | barometer mb |
| 20260503040723 | 55 | 215 | 3.0 | 4.0 | 0.00 | 0.00 | 0.00 | 50 | 1005.9 |
| 20260503040220 | 55 | 214 | 2.0 | 4.0 | 0.00 | 0.00 | 0.00 | 51 | 1006.0 |
| 20260503035717 | 55 | 216 | 2.0 | 4.0 | 0.00 | 0.00 | 0.00 | 51 | 1006.2 |
| 20260503035215 | 55 | 217 | 1.0 | 3.0 | 0.00 | 0.00 | 0.00 | 50 | 1006.1 |
| 20260503034712 | 55 | 242 | 3.0 | 4.0 | 0.00 | 0.00 | 0.00 | 51 | 1006.2 |
| 20260503034209 | 55 | 212 | 4.0 | 5.0 | 0.00 | 0.00 | 0.00 | 50 | 1006.4 |
| 20260503033706 | 55 | 209 | 3.0 | 4.0 | 0.00 | 0.00 | 0.00 | 50 | 1006.2 |
| 20260503033203 | 55 | 238 | 2.0 | 5.0 | 0.00 | 0.00 | 0.00 | 49 | 1006.4 |
| 20260503032701 | 55 | 222 | 2.0 | 4.0 | 0.00 | 0.00 | 0.00 | 51 | 1006.5 |
| 20260503032200 | 55 | 230 | 0.0 | 3.0 | 0.00 | 0.00 | 0.00 | 48 | 1006.4 |
| 20260503031656 | 55 | 262 | 0.0 | 2.0 | 0.00 | 0.00 | 0.00 | 48 | 1006.5 |
| 20260503031155 | 56 | 246 | 0.0 | 1.0 | 0.00 | 0.00 | 0.00 | 49 | 1006.7 |
| 20260503030650 | 56 | 320 | 0.0 | 2.0 | 0.00 | 0.00 | 0.00 | 48 | 1006.9 |
| 20260503030147 | 56 | 243 | 0.0 | 3.0 | 0.00 | 0.00 | 0.00 | 48 | 1006.6 |
| 20260503025644 | 56 | 222 | 1.0 | 3.0 | 0.00 | 0.00 | 0.00 | 47 | 1006.6 |
| 20260503025142 | 56 | 235 | 2.0 | 4.0 | 0.00 | 0.00 | 0.00 | 49 | 1006.6 |
| 20260503024638 | 56 | 233 | 0.0 | 2.0 | 0.00 | 0.00 | 0.00 | 48 | 1006.6 |
| 20260503024136 | 57 | 217 | 0.0 | 4.0 | 0.00 | 0.00 | 0.00 | 48 | 1006.8 |
| 20260503023632 | 57 | 218 | 0.0 | 4.0 | 0.00 | 0.00 | 0.00 | 47 | 1006.8 |
| 20260503023129 | 57 | 267 | 2.0 | 8.0 | 0.00 | 0.00 | 0.00 | 45 | 1006.7 |
| 20260503022625 | 58 | 248 | 1.0 | 3.0 | 0.00 | 0.00 | 0.00 | 45 | 1006.6 |
| 20260503022120 | 58 | 218 | 4.0 | 6.0 | 0.00 | 0.00 | 0.00 | 45 | 1006.7 |
| 20260503021617 | 58 | 232 | 2.0 | 7.0 | 0.00 | 0.00 | 0.00 | 44 | 1006.9 |
| 20260503021114 | 58 | 234 | 2.0 | 4.0 | 0.00 | 0.00 | 0.00 | 43 | 1006.8 |
| 20260503020611 | 59 | 228 | 3.0 | 5.0 | 0.00 | 0.00 | 0.00 | 44 | 1006.8 |
| 20260503020108 | 59 | 217 | 2.0 | 6.0 | 0.00 | 0.00 | 0.00 | 43 | 1006.7 |
| 20260503015605 | 59 | 237 | 1.0 | 5.0 | 0.00 | 0.00 | 0.00 | 44 | 1006.8 |
| 20260503015102 | 59 | 240 | 2.0 | 4.0 | 0.00 | 0.00 | 0.00 | 43 | 1006.8 |
| 20260503014552 | 59 | 318 | 0.0 | 4.0 | 0.00 | 0.00 | 0.00 | 42 | 1006.8 |
| 20260503014050 | 59 | 226 | 0.0 | 3.0 | 0.00 | 0.00 | 0.00 | 43 | 1006.5 |
| 20260503013547 | 59 | 249 | 0.0 | 3.0 | 0.00 | 0.00 | 0.00 | 43 | 1006.7 |
| 20260503013045 | 59 | 231 | 2.0 | 3.0 | 0.00 | 0.00 | 0.00 | 42 | 1006.9 |
| 20260503012542 | 59 | 248 | 1.0 | 4.0 | 0.00 | 0.00 | 0.00 | 40 | 1006.8 |
| 20260503012038 | 60 | 143 | 0.0 | 4.0 | 0.00 | 0.00 | 0.00 | 41 | 1006.8 |
| 20260503011535 | 60 | 216 | 0.0 | 5.0 | 0.00 | 0.00 | 0.00 | 41 | 1006.6 |
| 20260503011033 | 60 | 358 | 2.0 | 3.0 | 0.00 | 0.00 | 0.00 | 39 | 1006.9 |
| 20260503010529 | 60 | 175 | 0.0 | 6.0 | 0.00 | 0.00 | 0.00 | 39 | 1006.8 |
| 20260503010027 | 60 | 304 | 2.0 | 5.0 | 0.00 | 0.00 | 0.00 | 41 | 1007.1 |
| 20260503005523 | 60 | 204 | 2.0 | 3.0 | 0.00 | 0.00 | 0.00 | 40 | 1007.1 |
| 20260503005021 | 60 | 200 | 0.0 | 3.0 | 0.00 | 0.00 | 0.00 | 41 | 1006.9 |
| 20260503004516 | 60 | 280 | 0.0 | 5.0 | 0.00 | 0.00 | 0.00 | 41 | 1006.9 |
| 20260503004015 | 60 | 224 | 2.0 | 4.0 | 0.00 | 0.00 | 0.00 | 39 | 1007.2 |
| 20260503003511 | 60 | 246 | 1.0 | 4.0 | 0.00 | 0.00 | 0.00 | 40 | 1007.2 |
| 20260503003009 | 60 | 212 | 0.0 | 2.0 | 0.00 | 0.00 | 0.00 | 40 | 1007.3 |
| 20260503002506 | 60 | 314 | 1.0 | 3.0 | 0.00 | 0.00 | 0.00 | 41 | 1007.1 |
| 20260503002002 | 60 | 114 | 0.0 | 3.0 | 0.00 | 0.00 | 0.00 | 40 | 1007.2 |
| 20260503001459 | 60 | 19 | 3.0 | 3.0 | 0.00 | 0.00 | 0.00 | 39 | 1007.3 |
| 20260503000956 | 60 | 221 | 1.0 | 3.0 | 0.00 | 0.00 | 0.00 | 38 | 1007.2 |
| 20260503000453 | 60 | 128 | 2.0 | 5.0 | 0.00 | 0.00 | 0.00 | 39 | 1007.4 |
| 20260502235950 | 61 | 205 | 0.0 | 3.0 | 0.00 | 0.00 | 0.00 | 39 | 1007.3 |
| 20260502235447 | 61 | 302 | 1.0 | 3.0 | 0.00 | 0.00 | 0.00 | 37 | 1007.4 |
| 20260502234944 | 61 | 24 | 0.0 | 3.0 | 0.00 | 0.00 | 0.00 | 39 | 1007.5 |
| 20260502234441 | 61 | 271 | 0.0 | 5.0 | 0.00 | 0.00 | 0.00 | 37 | 1007.5 |
| 20260502233938 | 61 | 255 | 2.0 | 7.0 | 0.00 | 0.00 | 0.00 | 36 | 1007.3 |
| 20260502233433 | 62 | 44 | 2.0 | 6.0 | 0.00 | 0.00 | 0.00 | 36 | 1007.8 |
| 20260502232931 | 62 | 231 | 0.0 | 6.0 | 0.00 | 0.00 | 0.00 | 38 | 1007.6 |
| 20260502232427 | 62 | 268 | 3.0 | 6.0 | 0.00 | 0.00 | 0.00 | 35 | 1007.5 |
| 20260502231924 | 62 | 114 | 2.0 | 6.0 | 0.00 | 0.00 | 0.00 | 35 | 1007.6 |
| 20260502231421 | 62 | 45 | 1.0 | 5.0 | 0.00 | 0.00 | 0.00 | 37 | 1007.5 |
| 20260502230919 | 62 | 294 | 4.0 | 9.0 | 0.00 | 0.00 | 0.00 | 35 | 1007.8 |
| 20260502230417 | 62 | 126 | 2.0 | 6.0 | 0.00 | 0.00 | 0.00 | 35 | 1007.7 |
| 20260502225915 | 62 | 332 | 3.0 | 4.0 | 0.00 | 0.00 | 0.00 | 34 | 1007.6 |
| 20260502225411 | 62 | 19 | 1.0 | 5.0 | 0.00 | 0.00 | 0.00 | 35 | 1007.6 |
| 20260502224908 | 62 | 29 | 1.0 | 8.0 | 0.00 | 0.00 | 0.00 | 34 | 1007.8 |
| 20260502224403 | 62 | 269 | 3.0 | 9.0 | 0.00 | 0.00 | 0.00 | 35 | 1008.1 |
| 20260502223901 | 62 | 303 | 3.0 | 7.0 | 0.00 | 0.00 | 0.00 | 34 | 1008.0 |
| 20260502223358 | 63 | 261 | 4.0 | 10.0 | 0.00 | 0.00 | 0.00 | 33 | 1008.2 |
| 20260502222856 | 65 | 257 | 1.0 | 7.0 | 0.00 | 0.00 | 0.00 | 32 | 1008.2 |
| 20260502222348 | 64 | 348 | 3.0 | 7.0 | 0.00 | 0.00 | 0.00 | 32 | 1008.3 |
| 20260502221843 | 64 | 232 | 4.0 | 5.0 | 0.00 | 0.00 | 0.00 | 33 | 1008.2 |
| 20260502221340 | 64 | 18 | 2.0 | 11.0 | 0.00 | 0.00 | 0.00 | 34 | 1008.1 |
| 20260502220837 | 65 | 1 | 6.0 | 11.0 | 0.00 | 0.00 | 0.00 | 32 | 1008.5 |
| 20260502220333 | 64 | 111 | 1.0 | 14.0 | 0.00 | 0.00 | 0.00 | 32 | 1008.3 |
| 20260502215830 | 64 | 173 | 2.0 | 10.0 | 0.00 | 0.00 | 0.00 | 32 | 1008.6 |
| 20260502215327 | 64 | 308 | 6.0 | 15.0 | 0.00 | 0.00 | 0.00 | 32 | 1008.6 |
| 20260502214824 | 64 | 322 | 4.0 | 11.0 | 0.00 | 0.00 | 0.00 | 32 | 1008.7 |
| 20260502214320 | 64 | 247 | 2.0 | 12.0 | 0.00 | 0.00 | 0.00 | 33 | 1008.6 |
| 20260502213818 | 64 | 179 | 2.0 | 22.0 | 0.00 | 0.00 | 0.00 | 33 | 1008.6 |
| 20260502213315 | 65 | 216 | 3.0 | 13.0 | 0.00 | 0.00 | 0.00 | 32 | 1008.6 |
| 20260502212814 | 65 | 347 | 3.0 | 6.0 | 0.00 | 0.00 | 0.00 | 32 | 1008.8 |
| 20260502212311 | 65 | 46 | 3.0 | 9.0 | 0.00 | 0.00 | 0.00 | 32 | 1008.9 |
| 20260502211808 | 64 | 97 | 1.0 | 6.0 | 0.00 | 0.00 | 0.00 | 36 | 1009.1 |
| 20260502211258 | 62 | 217 | 4.0 | 6.0 | 0.00 | 0.00 | 0.00 | 35 | 1008.9 |
| 20260502210755 | 63 | 291 | 4.0 | 11.0 | 0.00 | 0.00 | 0.00 | 32 | 1009.1 |
| 20260502210252 | 63 | 302 | 2.0 | 10.0 | 0.00 | 0.00 | 0.00 | 32 | 1009.1 |
| 20260502205749 | 65 | 286 | 3.0 | 5.0 | 0.00 | 0.00 | 0.00 | 32 | 1009.4 |
| 20260502205240 | 65 | 108 | 2.0 | 6.0 | 0.00 | 0.00 | 0.00 | 30 | 1009.5 |
| 20260502204738 | 64 | 247 | 3.0 | 8.0 | 0.00 | 0.00 | 0.00 | 32 | 1009.2 |
| 20260502204235 | 64 | 222 | 2.0 | 13.0 | 0.00 | 0.00 | 0.00 | 31 | 1009.5 |
| 20260502203732 | 64 | 185 | 2.0 | 10.0 | 0.00 | 0.00 | 0.00 | 32 | 1009.6 |
| 20260502203230 | 65 | 280 | 2.0 | 5.0 | 0.00 | 0.00 | 0.00 | 34 | 1009.5 |
| 20260502202724 | 63 | 232 | 4.0 | 9.0 | 0.00 | 0.00 | 0.00 | 36 | 1009.8 |
| 20260502202223 | 63 | 346 | 4.0 | 11.0 | 0.00 | 0.00 | 0.00 | 31 | 1009.6 |
| 20260502201720 | 64 | 359 | 2.0 | 7.0 | 0.00 | 0.00 | 0.00 | 34 | 1009.9 |
| 20260502201216 | 64 | 231 | 2.0 | 6.0 | 0.00 | 0.00 | 0.00 | 32 | 1009.9 |
| 20260502200712 | 63 | 21 | 4.0 | 10.0 | 0.00 | 0.00 | 0.00 | 33 | 1010.0 |
| 20260502200209 | 64 | 205 | 2.0 | 8.0 | 0.00 | 0.00 | 0.00 | 31 | 1010.2 |
| 20260502195707 | 62 | 210 | 2.0 | 11.0 | 0.00 | 0.00 | 0.00 | 33 | 1010.2 |
| 20260502195203 | 63 | 201 | 3.0 | 7.0 | 0.00 | 0.00 | 0.00 | 37 | 1010.2 |
| 20260502194659 | 62 | 24 | 0.0 | 9.0 | 0.00 | 0.00 | 0.00 | 31 | 1010.3 |
| 20260502194150 | 63 | 62 | 3.0 | 11.0 | 0.00 | 0.00 | 0.00 | 32 | 1010.5 |
| 20260502193647 | 63 | 238 | 3.0 | 5.0 | 0.00 | 0.00 | 0.00 | 37 | 1010.4 |
| 20260502193144 | 61 | 175 | 0.0 | 8.0 | 0.00 | 0.00 | 0.00 | 34 | 1010.4 |
| 20260502192639 | 61 | 294 | 6.0 | 10.0 | 0.00 | 0.00 | 0.00 | 31 | 1010.7 |
| 20260502192137 | 63 | 206 | 2.0 | 5.0 | 0.00 | 0.00 | 0.00 | 38 | 1010.9 |
| 20260502191633 | 62 | 219 | 5.0 | 7.0 | 0.00 | 0.00 | 0.00 | 31 | 1010.9 |
| 20260502191125 | 61 | 186 | 1.0 | 4.0 | 0.00 | 0.00 | 0.00 | 38 | 1010.9 |
| 20260502190623 | 61 | 279 | 2.0 | 6.0 | 0.00 | 0.00 | 0.00 | 35 | 1010.9 |
| 20260502190121 | 60 | 259 | 3.0 | 14.0 | 0.00 | 0.00 | 0.00 | 34 | 1011.0 |
| 20260502185615 | 62 | 250 | 2.0 | 6.0 | 0.00 | 0.00 | 0.00 | 37 | 1011.2 |
| 20260502185112 | 61 | 294 | 3.0 | 7.0 | 0.00 | 0.00 | 0.00 | 34 | 1011.3 |
| 20260502184608 | 60 | 248 | 5.0 | 9.0 | 0.00 | 0.00 | 0.00 | 31 | 1011.3 |
| 20260502184103 | 60 | 260 | 4.0 | 11.0 | 0.00 | 0.00 | 0.00 | 32 | 1011.6 |
| 20260502183600 | 60 | 30 | 1.0 | 7.0 | 0.00 | 0.00 | 0.00 | 35 | 1011.6 |
| 20260502183056 | 61 | 233 | 2.0 | 9.0 | 0.00 | 0.00 | 0.00 | 32 | 1011.7 |
| 20260502182552 | 60 | 223 | 2.0 | 10.0 | 0.00 | 0.00 | 0.00 | 34 | 1011.9 |
| 20260502182047 | 60 | 310 | 2.0 | 8.0 | 0.00 | 0.00 | 0.00 | 33 | 1011.6 |
| 20260502181545 | 59 | 53 | 3.0 | 12.0 | 0.00 | 0.00 | 0.00 | 34 | 1011.8 |
| 20260502181043 | 59 | 246 | 3.0 | 13.0 | 0.00 | 0.00 | 0.00 | 35 | 1011.9 |
| 20260502180541 | 60 | 55 | 5.0 | 13.0 | 0.00 | 0.00 | 0.00 | 34 | 1012.0 |
| 20260502170454 | 58 | 247 | 4.0 | 10.0 | 0.00 | 0.00 | 0.00 | 35 | 1012.7 |
| 20260502163937 | 57 | 238 | 1.0 | 5.0 | 0.00 | 0.00 | 0.00 | 36 | 1013.0 |
| 20260502163433 | 55 | 229 | 3.0 | 8.0 | 0.00 | 0.00 | 0.00 | 38 | 1013.1 |
| 20260502162931 | 56 | 320 | 6.0 | 13.0 | 0.00 | 0.00 | 0.00 | 37 | 1012.9 |
| 20260502162428 | 57 | 314 | 11.0 | 14.0 | 0.00 | 0.00 | 0.00 | 36 | 1012.9 |
| 20260502161926 | 56 | 203 | 1.0 | 14.0 | 0.00 | 0.00 | 0.00 | 38 | 1013.1 |
| 20260502161421 | 57 | 310 | 13.0 | 14.0 | 0.00 | 0.00 | 0.00 | 36 | 1013.2 |
| 20260502160919 | 56 | 79 | 2.0 | 15.0 | 0.00 | 0.00 | 0.00 | 36 | 1013.1 |
| 20260502160417 | 55 | 83 | 3.0 | 16.0 | 0.00 | 0.00 | 0.00 | 39 | 1013.1 |
| 20260502151855 | 55 | 336 | 4.0 | 14.0 | 0.00 | 0.00 | 0.00 | 41 | 1013.2 |
| 20260502151351 | 56 | 111 | 2.0 | 12.0 | 0.00 | 0.00 | 0.00 | 40 | 1013.5 |
| 20260502150850 | 56 | 263 | 3.0 | 11.0 | 0.00 | 0.00 | 0.00 | 40 | 1013.5 |
| 20260502150345 | 54 | 194 | 3.0 | 9.0 | 0.00 | 0.00 | 0.00 | 44 | 1013.5 |
| 20260502130734 | 47 | 249 | 2.0 | 5.0 | 0.00 | 0.00 | 0.00 | 55 | 1013.6 |
| 20260502130231 | 48 | 226 | 2.0 | 3.0 | 0.00 | 0.00 | 0.00 | 57 | 1013.4 |
| 20260502123717 | 44 | 262 | 2.0 | 6.0 | 0.00 | 0.00 | 0.00 | 58 | 1013.7 |
| 20260502123214 | 43 | 355 | 0.0 | 6.0 | 0.00 | 0.00 | 0.00 | 60 | 1013.7 |
| 20260502122710 | 43 | 357 | 1.0 | 6.0 | 0.00 | 0.00 | 0.00 | 60 | 1013.8 |
| 20260502122207 | 42 | 235 | 0.0 | 4.0 | 0.00 | 0.00 | 0.00 | 60 | 1013.8 |
| 20260502121705 | 42 | 291 | 3.0 | 6.0 | 0.00 | 0.00 | 0.00 | 60 | 1013.8 |
| 20260502121203 | 41 | 354 | 2.0 | 5.0 | 0.00 | 0.00 | 0.00 | 61 | 1013.7 |
| 20260502120659 | 41 | 4 | 1.0 | 5.0 | 0.00 | 0.00 | 0.00 | 62 | 1013.6 |
| 20260502120156 | 40 | 276 | 2.0 | 6.0 | 0.00 | 0.00 | 0.00 | 64 | 1013.6 |
| 20260502115654 | 38 | 282 | 0.0 | 5.0 | 0.00 | 0.00 | 0.00 | 66 | 1013.5 |
| 20260502115149 | 37 | 256 | 1.0 | 6.0 | 0.00 | 0.00 | 0.00 | 68 | 1013.7 |
| 20260502114646 | 37 | 294 | 3.0 | 6.0 | 0.00 | 0.00 | 0.00 | 67 | 1013.5 |
| 20260502114143 | 37 | 104 | 1.0 | 4.0 | 0.00 | 0.00 | 0.00 | 67 | 1013.5 |
| 20260502113641 | 37 | 174 | 0.0 | 7.0 | 0.00 | 0.00 | 0.00 | 67 | 1013.6 |
| 20260502113139 | 37 | 287 | 0.0 | 4.0 | 0.00 | 0.00 | 0.00 | 68 | 1013.5 |
| 20260502112636 | 35 | 85 | 2.0 | 6.0 | 0.00 | 0.00 | 0.00 | 70 | 1013.6 |
| 20260502112134 | 35 | 53 | 0.0 | 3.0 | 0.00 | 0.00 | 0.00 | 72 | 1013.7 |
| 20260502111631 | 34 | 273 | 0.0 | 5.0 | 0.00 | 0.00 | 0.00 | 72 | 1013.5 |
| 20260502111128 | 34 | 329 | 1.0 | 5.0 | 0.00 | 0.00 | 0.00 | 72 | 1013.6 |
| 20260502110620 | 34 | 276 | 2.0 | 6.0 | 0.00 | 0.00 | 0.00 | 73 | 1013.4 |
| 20260502110117 | 34 | 243 | 0.0 | 3.0 | 0.00 | 0.00 | 0.00 | 73 | 1013.6 |
| 20260502105615 | 33 | 295 | 1.0 | 3.0 | 0.00 | 0.00 | 0.00 | 74 | 1013.3 |
| 20260502105112 | 33 | 337 | 1.0 | 2.0 | 0.00 | 0.00 | 0.00 | 75 | 1013.4 |
| 20260502104609 | 33 | 171 | 1.0 | 4.0 | 0.00 | 0.00 | 0.00 | 75 | 1013.5 |
| 20260502104106 | 33 | 356 | 0.0 | 3.0 | 0.00 | 0.00 | 0.00 | 75 | 1013.5 |
| 20260502103604 | 34 | 197 | 0.0 | 3.0 | 0.00 | 0.00 | 0.00 | 73 | 1013.4 |
| 20260502103102 | 34 | 262 | 3.0 | 4.0 | 0.00 | 0.00 | 0.00 | 73 | 1013.4 |
| 20260502102557 | 34 | 339 | 0.0 | 4.0 | 0.00 | 0.00 | 0.00 | 73 | 1013.4 |
| 20260502102055 | 34 | 252 | 0.0 | 5.0 | 0.00 | 0.00 | 0.00 | 73 | 1013.4 |
| 20260502101553 | 34 | 280 | 0.0 | 4.0 | 0.00 | 0.00 | 0.00 | 72 | 1013.6 |
| 20260502101051 | 35 | 255 | 2.0 | 5.0 | 0.00 | 0.00 | 0.00 | 72 | 1013.7 |
| 20260502100549 | 35 | 227 | 1.0 | 3.0 | 0.00 | 0.00 | 0.00 | 72 | 1013.6 |
| 20260502091524 | 35 | 257 | 0.0 | 2.0 | 0.00 | 0.00 | 0.00 | 70 | 1013.6 |
| 20260502091021 | 36 | 240 | 1.0 | 1.0 | 0.00 | 0.00 | 0.00 | 70 | 1013.5 |
| 20260502090518 | 36 | 217 | 0.0 | 2.0 | 0.00 | 0.00 | 0.00 | 70 | 1013.4 |
| 20260502071407 | 37 | 220 | 1.0 | 3.0 | 0.00 | 0.00 | 0.00 | 66 | 1013.7 |
| 20260502070905 | 37 | 225 | 1.0 | 3.0 | 0.00 | 0.00 | 0.00 | 67 | 1013.7 |
| 20260502070402 | 37 | 323 | 0.0 | 2.0 | 0.00 | 0.00 | 0.00 | 67 | 1013.7 |
| 20260502065901 | 37 | 293 | 1.0 | 2.0 | 0.00 | 0.00 | 0.00 | 66 | 1013.9 |
| 20260502065359 | 37 | 244 | 0.0 | 2.0 | 0.00 | 0.00 | 0.00 | 68 | 1013.9 |
| 20260502064856 | 36 | 49 | 0.0 | 1.0 | 0.00 | 0.00 | 0.00 | 69 | 1013.7 |
| 20260502064354 | 36 | 267 | 0.0 | 2.0 | 0.00 | 0.00 | 0.00 | 69 | 1013.8 |
| 20260502063851 | 36 | 345 | 0.0 | 2.0 | 0.00 | 0.00 | 0.00 | 70 | 1014.1 |
| 20260502063349 | 36 | 337 | 2.0 | 2.0 | 0.00 | 0.00 | 0.00 | 70 | 1013.8 |
| 20260502062846 | 36 | 310 | 0.0 | 2.0 | 0.00 | 0.00 | 0.00 | 68 | 1013.8 |
| 20260502062343 | 37 | 269 | 0.0 | 2.0 | 0.00 | 0.00 | 0.00 | 69 | 1014.0 |
| 20260502061842 | 37 | 282 | 1.0 | 2.0 | 0.00 | 0.00 | 0.00 | 69 | 1014.0 |
| 20260502061339 | 36 | 273 | 1.0 | 2.0 | 0.00 | 0.00 | 0.00 | 71 | 1014.0 |
| 20260502060835 | 36 | 350 | 0.0 | 1.0 | 0.00 | 0.00 | 0.00 | 71 | 1014.0 |
| 20260502060330 | 35 | 25 | 0.0 | 3.0 | 0.00 | 0.00 | 0.00 | 73 | 1014.1 |
| 20260502055828 | 36 | 0 | 0.0 | 2.0 | 0.00 | 0.00 | 0.00 | 70 | 1014.0 |
| 20260502055326 | 37 | 346 | 0.0 | 2.0 | 0.00 | 0.00 | 0.00 | 67 | 1013.9 |
| 20260502054825 | 38 | 297 | 0.0 | 2.0 | 0.00 | 0.00 | 0.00 | 66 | 1013.8 |
| 20260502054323 | 38 | 208 | 1.0 | 2.0 | 0.00 | 0.00 | 0.00 | 67 | 1013.7 |
| 20260502053820 | 38 | 258 | 1.0 | 2.0 | 0.00 | 0.00 | 0.00 | 67 | 1013.9 |
| 20260502053317 | 38 | 259 | 0.0 | 2.0 | 0.00 | 0.00 | 0.00 | 66 | 1013.9 |
| 20260502052815 | 37 | 290 | 0.0 | 1.0 | 0.00 | 0.00 | 0.00 | 66 | 1013.8 |
| 20260502052312 | 37 | 254 | 0.0 | 1.0 | 0.00 | 0.00 | 0.00 | 66 | 1013.8 |
| 20260502051810 | 38 | 224 | 0.0 | 1.0 | 0.00 | 0.00 | 0.00 | 66 | 1013.8 |
| 20260502051309 | 38 | 255 | 1.0 | 2.0 | 0.00 | 0.00 | 0.00 | 66 | 1013.7 |
| 20260502050804 | 38 | 321 | 0.0 | 2.0 | 0.00 | 0.00 | 0.00 | 66 | 1013.8 |
| 20260502050301 | 38 | 304 | 0.0 | 1.0 | 0.00 | 0.00 | 0.00 | 66 | 1013.7 |
| 20260502045758 | 38 | 184 | 0.0 | 1.0 | 0.00 | 0.00 | 0.00 | 66 | 1013.7 |
| 20260502045255 | 39 | 149 | 0.0 | 1.0 | 0.00 | 0.00 | 0.00 | 65 | 1013.9 |
| 20260502044752 | 39 | 203 | 0.0 | 2.0 | 0.00 | 0.00 | 0.00 | 64 | 1013.7 |
| 20260502044248 | 39 | 197 | 0.0 | 2.0 | 0.00 | 0.00 | 0.00 | 63 | 1013.8 |
| 20260502043745 | 39 | 193 | 0.0 | 1.0 | 0.00 | 0.00 | 0.00 | 62 | 1013.8 |
| 20260502043243 | 39 | 197 | 0.0 | 2.0 | 0.00 | 0.00 | 0.00 | 62 | 1013.6 |
| 20260502042742 | 39 | 171 | 0.0 | 1.0 | 0.00 | 0.00 | 0.00 | 64 | 1013.8 |
| 20260502042240 | 39 | 279 | 0.0 | 1.0 | 0.00 | 0.00 | 0.00 | 62 | 1013.7 |
| 20260502041737 | 39 | 234 | 0.0 | 2.0 | 0.00 | 0.00 | 0.00 | 62 | 1013.7 |
| 20260502041234 | 38 | 286 | 0.0 | 2.0 | 0.00 | 0.00 | 0.00 | 63 | 1013.8 |